This is the latest recevied weather packets stored in our database for station/object YS1AHL-28. If no packets are shown the sender has not sent any weather packets the latest 10 day(s).
| Time | Temp. | Humidity | Pressure | Rain* | Wind** | Luminosity | Snow |
|---|---|---|---|---|---|---|---|
| 1787593189 | 22.22° C | 60% | 1010 hPa | 0 mm | - | - | - |
| 1787592649 | 22.22° C | 59% | 1010 hPa | 0 mm | - | - | - |
| 1787592589 | 22.22° C | 59% | 1010 hPa | 0 mm | - | - | - |
| 1787592048 | 22.78° C | 58% | 1010 hPa | 0 mm | - | - | - |
| 1787591988 | 22.78° C | 58% | 1010 hPa | 0 mm | - | - | - |
| 1787591448 | 22.22° C | 53% | 1010 hPa | 0 mm | - | - | - |
| 1787591387 | 22.22° C | 53% | 1010 hPa | 0 mm | - | - | - |
| 1787590847 | 22.78° C | 59% | 1010 hPa | 0 mm | - | - | - |
| 1787590787 | 22.78° C | 59% | 1010 hPa | 0 mm | - | - | - |
| 1787590246 | 22.78° C | 58% | 1010 hPa | 0 mm | - | - | - |
| 1787590186 | 22.78° C | 58% | 1010 hPa | 0 mm | - | - | - |
| 1787589646 | 21.67° C | 57% | 1010 hPa | 0 mm | - | - | - |
| 1787589586 | 21.67° C | 57% | 1010 hPa | 0 mm | - | - | - |
| 1787589045 | 21.67° C | 58% | 1010 hPa | 0 mm | - | - | - |
| 1787588985 | 21.67° C | 58% | 1010 hPa | 0 mm | - | - | - |
| 1787588445 | 21.67° C | 59% | 1010 hPa | 0 mm | - | - | - |
| 1787588384 | 21.67° C | 59% | 1010 hPa | 0 mm | - | - | - |
| 1787587844 | 23.33° C | 55% | 1010 hPa | 0 mm | - | - | - |
| 1787587783 | 23.33° C | 55% | 1010 hPa | 0 mm | - | - | - |
| 1787587243 | 21.67° C | 58% | 1010 hPa | 0 mm | - | - | - |
| 1787587183 | 21.67° C | 58% | 1010 hPa | 0 mm | - | - | - |
| 1787586643 | 21.67° C | 58% | 1010 hPa | 0 mm | - | - | - |
| 1787586582 | 21.67° C | 58% | 1010 hPa | 0 mm | - | - | - |
| 1787586042 | 21.67° C | 59% | 1010 hPa | 0 mm | - | - | - |
| 1787585982 | 21.67° C | 59% | 1010 hPa | 0 mm | - | - | - |
* Rain latest hour (hover to see other rain measurements)
** Current wind speed in m/s (hover to see current wind gust speed)